Theta_e
328 328 328 328 328 327 327 327 330 329 334 335 336 334 332 334 337 337 345 344 345 343 341 342 343 342 342 341 345 344 336 337 336 339 337 337 337 330 333 348 348 347 347 348
331 329 329 329 328 328 328 328 326 331 341 336 336 337 338 342 342 342 342 343 343 342 343 343 343 342 344 343 342 337 336 334 338 340 341 338 335 333 342 346 345 347 348 347
332 330 330 330 336 334 334 331 335 336 341 336 336 340 342 342 341 341 341 341 342 340 339 340 342 342 337 336 335 333 335 337 338 337 338 333 335 341 346 346 348 349 347 347
332 332 334 333 333 332 335 338 338 339 334 332 331 334 335 333 334 337 339 339 341 338 339 340 342 344 339 336 336 340 337 340 340 337 335 338 334 331 339 346 346 346 345 344
333 332 332 334 331 333 335 338 336 336 335 334 331 330 331 327 327 331 337 336 339 339 338 338 339 340 342 341 341 341 340 339 340 338 341 338 335 338 342 343 343 343 346 346
335 335 338 336 329 327 335 340 335 333 335 336 333 335 332 331 330 335 335 335 334 334 334 336 336 337 340 339 339 339 340 341 339 340 339 339 339 341 341 341 344 344 340 337
337 335 333 334 332 333 338 340 334 332 332 334 332 330 329 332 334 333 334 333 333 333 334 334 333 333 334 333 334 335 336 337 339 341 338 339 336 336 337 338 336 335 336 337
336 337 337 333 333 337 335 335 333 334 330 329 331 330 333 333 333 333 333 332 333 332 331 331 331 331 331 331 332 333 333 328 329 332 332 335 338 337 337 338 338 339 340 339
332 333 334 332 334 334 334 335 334 334 329 331 332 333 332 332 332 332 333 332 332 331 331 330 329 329 329 328 329 330 332 331 327 326 325 327 328 333 334 337 340 341 341 341
332 331 332 333 332 333 334 334 332 327 331 331 332 331 332 332 331 331 331 331 330 330 330 330 330 329 329 328 326 327 329 329 331 331 330 330 328 329 333 335 336 335 338 338
331 328 328 330 333 333 330 330 330 332 329 330 330 330 331 331 331 332 332 330 330 330 329 330 329 328 329 328 327 327 327 326 327 328 327 332 331 329 328 332 332 331 330 332
328 328 331 332 332 329 325 324 322 328 327 328 330 329 330 331 331 330 330 330 330 329 329 328 328 328 328 327 327 326 327 326 326 325 323 326 330 331 330 330 331 330 330 329
326 325 331 328 329 328 327 325 326 327 327 328 327 330 330 332 332 330 329 329 328 328 327 327 328 328 326 325 325 325 326 325 325 325 325 324 325 328 331 328 331 330 329 329
324 327 330 328 329 328 327 324 328 328 327 327 327 326 329 332 332 331 328 327 326 327 328 327 327 327 327 324 324 324 324 325 325 325 324 323 323 326 329 329 330 329 330 330
321 325 329 327 330 325 324 326 328 325 326 326 326 327 327 327 328 327 327 326 326 326 327 325 325 325 325 324 323 323 324 325 324 323 323 322 323 323 328 328 330 329 329 330
325 324 326 326 327 322 326 327 328 326 325 325 325 326 326 326 327 327 326 325 325 325 325 324 325 324 324 321 323 322 322 322 322 323 323 323 324 325 327 330 328 328 329 328
324 326 326 326 328 327 326 325 326 326 325 326 326 325 325 325 327 327 327 327 326 326 324 324 324 323 316 322 322 322 322 322 325 325 325 326 326 326 326 330 329 328 327 326
326 326 322 324 325 328 325 325 325 326 329 327 327 327 326 326 324 326 327 326 326 325 323 323 321 318 320 322 320 320 322 322 324 325 325 326 325 326 329 328 329 327 327 326
324 321 321 323 324 326 326 328 329 327 327 328 326 326 326 325 325 326 326 326 325 324 323 320 319 319 322 321 318 320 321 320 321 323 323 324 326 327 326 327 326 325 325 323
327 324 326 324 329 329 328 328 327 326 325 325 324 324 325 325 324 326 328 326 324 325 323 320 318 320 322 321 318 317 318 320 320 320 319 320 323 324 324 324 324 326 323 320
327 327 327 326 326 326 325 324 323 322 322 323 324 324 323 322 323 323 323 324 324 323 320 318 317 321 320 318 311 315 319 319 318 319 318 319 320 323 322 323 323 323 323 322
326 325 324 324 324 323 323 323 323 323 324 323 322 322 323 323 323 322 322 324 324 322 319 318 318 321 319 319 311 318 319 319 319 319 318 318 318 320 322 321 321 322 323 322
324 325 324 323 324 323 323 324 324 323 322 323 321 322 321 322 322 323 323 324 324 321 320 318 315 315 315 315 313 316 317 317 317 317 317 317 316 320 322 321 320 320 320 321
322 323 323 323 324 324 325 323 323 323 323 321 322 324 324 324 323 322 322 322 321 320 320 319 316 313 312 312 314 316 317 316 316 315 315 316 316 316 319 321 321 317 314 317
320 323 323 324 324 324 322 322 322 321 321 320 321 321 323 324 324 323 320 320 321 321 321 320 319 316 315 315 314 315 317 316 315 315 315 315 314 315 316 316 319 319 317 313
318 319 320 322 324 323 323 321 320 319 319 321 320 320 319 321 320 322 323 323 322 322 321 319 320 318 317 317 317 316 315 315 315 316 316 316 315 315 316 315 316 316 317 316
319 318 320 321 320 321 320 319 319 319 319 320 319 319 319 320 321 320 321 322 322 322 320 318 320 320 319 317 317 317 316 316 316 316 316 315 315 316 314 315 316 315 315 315
Wind_Speed
20 23 23 23 25 23 20 20 19 17 3 4 11 11 5 11 7 15 8 8 10 15 14 11 8 12 13 11 11 5 5 4 8 15 15 18 24 42 25 28 23 21 22 21
21 21 23 24 24 24 23 18 23 10 12 7 9 21 5 9 2 12 9 10 11 9 12 13 11 2 2 5 7 9 8 5 6 14 19 34 46 35 31 29 23 23 23 23
19 20 21 18 17 17 25 10 21 13 14 13 11 9 11 9 11 4 5 8 9 11 12 10 11 9 2 6 5 4 4 6 4 13 21 36 32 28 22 25 22 22 23 22
14 17 19 7 14 12 20 17 14 15 16 16 14 14 11 9 11 7 2 7 8 10 14 14 10 12 8 4 2 2 3 2 4 8 13 28 23 24 16 16 16 18 18 19
11 14 17 14 6 9 15 9 15 12 9 12 18 12 6 8 4 16 2 10 10 13 15 16 15 8 10 6 5 6 5 2 2 5 5 11 25 17 19 19 17 16 19 17
11 6 15 3 11 20 24 11 10 11 11 13 13 8 7 11 4 12 6 10 11 13 13 15 15 11 5 4 0 1 2 3 3 4 3 3 7 10 14 14 15 16 16 20
4 5 8 13 17 10 11 5 6 8 13 22 7 4 7 16 9 11 12 12 13 15 17 17 14 13 15 12 13 9 3 4 2 2 1 2 4 7 11 12 12 20 23 21
1 7 4 16 9 6 2 5 3 4 11 8 11 8 5 8 10 12 13 13 13 15 16 13 14 13 14 15 13 11 12 9 7 5 7 7 8 8 10 12 17 23 23 24
8 4 13 15 7 3 3 5 10 7 8 8 7 10 11 11 9 10 10 12 12 13 12 12 13 12 12 12 11 12 10 13 13 11 10 14 10 7 6 4 11 13 15 13
11 3 3 1 1 4 7 13 12 4 3 7 13 10 12 11 9 9 9 9 9 9 10 10 11 12 12 12 13 11 9 8 10 12 13 11 12 10 6 5 11 17 17 11
4 9 9 9 5 0 5 12 16 8 8 7 5 8 8 7 6 7 7 7 7 8 8 9 9 10 10 12 11 10 10 10 10 5 7 11 11 15 12 11 12 13 14 17
3 3 4 5 4 2 7 20 15 17 15 7 7 4 7 5 5 6 6 5 6 6 4 6 7 9 11 12 12 11 10 10 10 10 8 8 9 11 11 10 12 14 15 16
13 5 7 6 5 5 11 15 4 4 9 9 7 10 7 6 4 4 5 5 5 5 7 7 8 10 12 11 12 11 11 10 11 8 9 11 10 11 5 15 13 15 16 16
7 3 8 5 5 12 13 9 8 5 8 6 10 6 5 6 6 5 4 2 4 7 7 7 8 10 10 14 12 13 12 12 12 11 13 10 11 11 10 14 11 14 15 18
11 7 7 5 19 16 7 8 4 10 9 7 7 7 8 8 5 3 1 3 6 5 6 9 10 10 10 11 12 12 12 11 10 13 11 11 11 11 10 12 10 12 12 15
8 10 9 4 17 12 16 23 14 8 9 6 5 3 2 2 1 3 4 2 6 9 9 8 7 9 11 12 11 11 11 10 12 12 13 11 11 12 12 8 11 11 10 13
17 8 8 8 4 11 10 7 9 8 6 5 2 3 4 3 6 3 5 3 5 7 8 6 7 10 17 10 11 10 8 12 13 11 17 14 16 10 10 7 11 9 10 13
10 9 12 7 22 2 14 5 7 7 9 1 3 1 2 5 6 5 6 8 7 9 7 6 14 17 8 10 13 8 10 12 11 12 15 14 15 11 8 10 7 6 7 12
2 15 1 30 33 10 9 9 10 7 3 3 5 4 6 6 7 8 7 9 8 11 6 12 14 10 7 11 14 9 7 13 12 11 15 13 13 11 9 9 10 9 10 8
10 18 20 24 21 14 8 7 5 5 7 7 7 6 6 4 9 8 7 11 13 9 11 10 12 6 5 10 15 13 11 9 11 9 15 14 13 12 13 11 8 7 6 5
19 13 10 11 11 8 7 5 7 6 5 3 5 6 8 9 9 9 9 11 4 6 12 12 15 7 6 14 16 13 13 9 11 8 11 12 10 10 12 10 7 4 7 7
8 9 8 6 4 4 5 5 4 6 6 5 8 8 10 11 11 13 14 8 8 10 10 11 11 9 10 17 16 13 14 10 8 4 7 7 9 7 7 9 9 9 8 11
7 7 6 0 3 2 3 5 7 7 7 8 11 10 10 10 11 13 16 11 8 11 8 10 13 17 19 20 15 16 19 11 11 11 11 9 10 10 6 3 4 7 7 7
6 4 3 3 2 3 3 5 6 6 8 12 15 15 16 15 14 13 9 8 12 14 12 13 12 13 16 14 12 15 17 11 11 13 14 11 13 11 5 7 4 6 8 7
9 8 5 9 5 1 4 3 9 10 12 15 10 5 12 11 14 15 19 18 16 18 15 17 18 17 14 11 11 14 17 13 11 11 13 13 12 14 10 9 7 4 9 8
6 4 13 11 9 4 5 4 8 10 11 13 13 13 16 15 14 16 13 18 18 14 16 19 17 15 13 13 16 16 16 15 15 14 12 13 16 14 12 12 11 12 10 8
4 7 7 6 2 6 6 7 8 8 12 11 16 17 16 12 15 17 15 15 16 19 22 15 20 19 18 15 17 19 17 16 14 17 19 18 17 16 17 15 16 14 13 13
Wind_Direction
297 301 299 292 287 288 292 288 281 298 26 51 313 282 259 282 327 272 48 50 43 42 47 41 53 93 110 108 115 92 65 300 282 245 251 221 189 193 222 222 220 230 231 215
284 282 278 279 277 273 269 279 271 345 77 251 259 287 305 17 75 55 21 28 36 35 57 67 45 48 173 165 195 188 191 223 286 245 246 201 196 205 213 212 201 219 229 228
289 293 288 281 9 357 352 1 1 344 47 39 13 7 9 6 354 29 21 43 49 39 52 63 72 34 241 240 274 261 255 275 197 205 197 200 210 213 213 213 210 220 227 233
281 282 282 3 19 17 330 50 34 35 32 34 8 324 315 312 338 309 29 53 58 49 55 54 77 73 67 47 27 347 230 132 174 223 240 228 211 213 244 234 220 228 233 238
282 274 285 58 7 329 279 7 24 6 0 2 356 356 24 341 328 49 334 71 74 60 64 56 59 81 104 116 103 75 64 38 327 240 212 208 216 243 234 234 228 225 220 227
313 322 296 103 202 243 255 279 24 3 9 1 337 355 352 349 218 151 113 74 69 65 60 61 54 58 112 120 166 59 79 26 359 333 348 242 232 233 240 223 217 235 244 256
229 263 269 354 351 302 278 338 8 20 36 39 38 338 284 350 101 92 87 86 79 72 65 54 58 58 59 52 48 32 338 296 302 295 35 330 271 250 244 238 257 272 277 264
149 231 273 3 17 16 345 323 345 59 78 84 157 148 122 63 62 79 83 79 72 70 63 61 63 48 44 38 37 32 12 11 3 332 329 290 294 288 274 266 267 269 269 264
315 333 30 351 80 45 337 351 359 45 104 142 208 136 117 110 98 80 79 77 70 65 60 51 48 44 37 25 25 17 17 8 11 5 12 357 343 343 303 278 293 284 278 281
286 8 113 202 356 346 14 8 26 98 93 85 109 109 113 106 95 78 70 69 69 66 59 49 40 33 26 13 16 16 4 16 6 0 354 349 355 339 319 301 283 270 273 287
44 334 317 7 28 22 338 12 12 330 46 73 66 97 110 98 93 95 92 80 71 62 51 48 30 20 17 6 3 2 357 5 350 325 326 293 343 355 344 349 342 331 298 275
235 281 83 21 313 37 37 56 49 287 311 81 85 77 97 95 72 67 76 71 60 51 48 12 342 355 353 352 352 349 352 339 333 325 318 319 303 314 323 339 328 318 320 315
296 319 118 119 158 132 86 122 122 30 26 28 58 62 79 79 48 30 70 49 28 352 338 333 344 344 334 339 335 341 337 333 327 343 330 318 304 310 322 321 320 326 322 323
221 250 136 57 221 158 174 187 201 269 78 52 66 44 59 77 70 75 80 33 320 331 341 326 336 344 327 336 335 330 328 335 327 329 315 305 301 309 326 322 322 324 324 326
266 241 207 175 148 83 254 209 226 108 90 71 65 61 62 68 78 60 16 6 343 320 346 334 323 323 320 321 315 325 324 322 319 314 313 300 291 284 286 305 305 314 317 320
272 230 208 175 150 126 221 243 191 121 93 62 58 63 38 42 257 302 307 296 346 335 330 324 319 319 308 314 331 323 325 312 308 325 312 301 298 288 282 292 310 301 312 305
294 237 216 235 100 174 243 176 122 85 61 63 46 346 341 16 40 13 318 322 332 328 324 316 323 308 322 337 320 322 326 324 347 323 338 1 27 7 326 318 323 316 305 307
85 57 3 7 249 136 325 182 149 129 127 206 209 195 279 278 310 302 318 302 325 325 315 296 310 323 341 320 325 334 340 335 335 334 342 342 341 339 348 327 317 318 317 310
165 1 258 253 279 179 99 99 97 107 42 69 25 333 326 293 298 298 293 302 308 308 289 328 311 319 328 311 336 319 325 351 346 340 341 348 342 345 338 325 317 292 295 304
134 127 196 246 76 66 79 59 47 39 4 355 337 324 308 332 331 335 315 310 296 262 285 325 317 345 302 314 322 312 308 299 329 325 331 332 333 325 329 321 306 289 302 335
-0 56 53 48 47 37 34 20 19 18 5 4 355 351 345 334 327 315 310 309 258 291 336 331 314 294 297 302 304 295 303 298 308 292 307 309 313 326 321 327 321 305 313 317
29 29 21 40 60 73 44 41 28 22 34 359 336 330 337 319 309 300 280 247 267 281 313 316 318 259 267 305 298 295 301 281 302 274 307 307 300 300 314 317 303 274 267 285
344 330 314 266 77 43 13 21 22 349 335 331 325 300 291 298 294 294 298 248 252 276 304 319 279 282 292 293 279 282 295 291 295 293 304 282 320 264 253 290 327 293 296 276
289 305 7 13 320 354 36 3 335 310 289 292 275 281 282 285 310 303 1 333 273 278 307 300 287 292 301 280 274 277 291 292 300 288 301 299 307 313 266 266 234 348 354 331
306 292 310 306 290 257 41 335 299 302 291 308 326 344 329 299 289 287 306 305 282 286 296 299 300 307 302 277 271 280 297 289 290 292 303 307 284 288 294 304 251 274 325 329
41 38 323 315 315 354 324 334 320 334 356 357 356 344 329 316 302 301 291 285 291 290 289 285 286 288 287 274 281 287 290 287 292 295 294 287 301 298 291 290 290 282 287 279
9 271 315 2 336 251 300 353 343 345 355 351 332 337 320 324 324 330 304 307 310 302 305 282 273 285 275 270 275 289 287 296 295 281 284 279 298 312 291 300 294 275 269 273